305P/Skiff (2014)

Japanese version
Home page
Updated on August 22, 2016

---------------------------------------------------------------------

* Profile

Designation 305P/2014 N1
Recovery Date July 3, 2013
Magnitude 21.9 mag
Recoverer Pan-STARRS 1 telescope (Haleakala)

* Pictures

* Orbital Elements

Epoch 2014 Dec. 9.0 TT = JDT 2457000.5
T 2014 Nov. 19.75947 TT                                 MPCW
q   1.4031025            (2000.0)            P               Q
n   0.09946802     Peri.  144.98991     +0.88091886     -0.43912053
a   4.6133215      Node   241.99264     +0.37564456     +0.87561979
e   0.6958585      Incl.   11.53237     +0.28787693     +0.20115451
P   9.91
From 509 observations 2004 Oct. 7-2015 Mar. 9, mean residual 0".8.
     Nongravitational parameters A1 = +0.06, A2 = -0.0171.

* Finding Charts

* Magnitudes Graph

        m1 = 13.5 + 5 log d + 17.0 log r(t - 65)

---------------------------------------------------------------------

The orbital elements are published on M.P.E.C. 2016-Q04.
The charts are made with StellaNavigator Ver.8 (AstroArts).
The magnitudes graphs are made with Comet for Windows.

---------------------------------------------------------------------

Copyright(C) Seiichi Yoshida (comet@aerith.net). All rights reserved.